[[{"header":{"parameterUnit":"m.s-1","parameterCategory":1,"la1":30.2991,"la2":30.254,"lo1":-89.0895,"lo2":-89.0444,"dy":0.0017,"dx":0.0017,"nx":28,"ny":28,"refTime":"2024-05-21T03:00:00:Z","depth":0,"parameterNumber":2,"parameterNumberName":"U-component_of_WINDS"},"data":[0,0,0,0,0,0,0,0,0,0,0,0,0,0,0,0,0,0,0,0,0,0,0,0,0,0,0,0,0,0,0,0,0,0,0,0,0,0,0,0,0,0,0,0,0,0,0,0,0,0,0,0,0,0,0,0,0,0,-4.9817,-4.9817,0,-4.9811,-4.9811,-4.9811,-4.9696,-4.9693,-4.969,-4.9687,-4.9681,-4.9683,-4.9686,0,0,0,0,0,0,0,0,0,0,0,0,0,-4.9733,-4.9735,-4.9817,-4.9817,-4.9817,-4.9811,-4.9811,-4.9811,-4.9696,-4.9693,-4.9689,-4.9686,-4.968,-4.9683,-4.9686,0,0,0,0,0,0,0,0,0,0,0,0,0,-4.9752,-4.9736,-4.9817,-4.9759,-4.9754,-4.9811,-4.9811,-4.9811,-4.9697,-4.9693,-4.9688,-4.9684,-4.9679,-4.9683,-4.9687,-4.9799,0,0,-4.9699,-4.97,0,0,0,0,0,0,0,0,-4.9751,-4.9756,-4.9768,-4.9763,-4.9758,-4.975,-4.9779,-4.9807,-4.9698,-4.9719,-4.9687,-4.9682,-4.9707,-4.9709,-4.9717,-4.9799,-4.9798,-4.9699,-4.9701,-4.9703,-4.9704,0,0,0,0,0,0,0,-4.975,-4.9755,-4.9815,-4.9768,-4.9762,-4.9734,-4.9732,-4.9784,-4.9738,-4.9717,-4.9708,-4.9709,-4.9704,-4.9714,-4.9716,-4.9798,-4.9699,-4.9702,-4.9705,-4.9706,-4.9974,-4.9979,0,0,0,0,0,0,-4.9757,-4.9755,-4.9815,-4.9815,-4.9744,-4.974,-4.9737,-4.9757,-4.9737,-4.973,-4.9713,-4.9704,-4.9709,-4.9712,-4.9716,-4.9846,-4.9703,-4.9706,-4.9709,-4.9969,-4.9975,-4.998,0,0,0,0,0,0,-4.9755,-4.9763,-4.9815,-4.9783,-4.9787,-4.9746,-4.9769,-4.9759,-4.9769,-4.9734,-4.9726,-4.9731,-4.9706,-4.971,-4.978,-4.9844,-4.9708,-4.9712,-4.9964,-4.9971,-4.9978,-5.0108,0,0,0,0,0,0,-4.9753,-4.9763,-4.9804,-4.9784,-4.9789,-4.9879,-4.9773,-4.9762,-4.9776,-4.9764,-4.9749,-4.9742,-4.9703,-4.9774,-4.9783,-4.9847,-4.9715,-4.9958,-4.9967,-4.9975,-5.0097,-5.0118,-5.0136,0,0,0,0,0,-4.9751,-4.9841,-4.9807,-4.9815,-4.984,-4.9883,-4.9885,-4.9838,-4.9781,-4.9823,-4.9802,-4.9743,-4.9837,-4.9783,-4.9792,-4.9857,-4.9953,-4.9964,-4.9975,-5.0088,-5.0114,-5.0136,0,0,0,0,0,0,-4.9868,-4.9837,-4.9799,-4.9885,-4.9888,-4.9863,-4.9913,-4.9866,-4.9884,-4.9872,-4.9813,-4.9811,-4.989,-4.9881,-4.9821,-4.9966,-4.9885,-4.9898,-4.9968,-4.9992,-5.0012,-5.0011,-4.9718,0,0,0,0,0,-4.9905,-4.9942,-4.9912,-4.9991,-4.9995,-4.9955,-4.9971,-4.9935,-4.9935,-4.9935,-4.9918,-4.9921,-4.9951,-4.9972,-4.9997,-5.0097,-5.0092,-5.0147,-5.0167,-5.0183,-5.0194,-5.0247,-5.0271,-5.0016,-5.0016,-5.0015,0,0,-4.9979,-4.9967,-4.9993,-5.0015,-5.0012,-5.0052,-4.9956,-5.0002,-5.0031,-4.9942,-5.0006,-4.9995,-4.9994,-5.008,-5.0117,-5.0075,-5.0265,-5.0197,-5.021,-5.0212,-5.0261,-5.0285,-5.0306,-5.0023,-5.0022,-5.0021,0,0,-5.0135,-5.013,-5.0195,-5.0195,-5.0193,-5.0167,-5.0184,-5.0167,-5.0156,-5.022,-5.0155,-5.019,-5.0243,-5.0245,-5.0253,-5.0416,-5.0363,-5.0427,-5.0527,-5.058,-5.06,-5.0617,-5.0675,-5.0696,-5.0439,-5.0439,-5.0439,0,-5.0227,-5.0284,-5.0234,-5.0286,-5.0298,-5.0221,-5.0288,-5.0291,-5.0298,-5.0308,-5.0262,-5.0328,-5.0322,-5.0407,-5.0448,-5.0457,-5.0474,-5.0426,-5.0601,-5.0618,-5.0634,-5.0688,-5.071,-5.0447,-5.0446,-5.0445,-5.0444,0,-5.0398,-5.0439,-5.0493,-5.0502,-5.0521,-5.058,-5.054,-5.0565,-5.0529,-5.0509,-5.0576,-5.0567,-5.059,-5.0609,-5.0574,-5.0691,-5.0665,-5.0611,-5.0527,-5.0666,-5.0716,-5.0736,-5.0457,-5.0455,-5.0452,-5.0451,0,0,-5.0621,-5.0607,-5.0627,-5.0631,-5.0626,-5.0657,-5.0715,-5.0738,-5.0761,-5.077,-5.0816,-5.0865,-5.0816,-5.0826,-5.0791,-5.0838,-5.0968,-5.0778,-5.0778,-5.0813,-5.1096,-5.1134,-5.1159,-5.0934,-5.0938,-5.0941,-5.1095,0,-5.0771,-5.0865,-5.0825,-5.0924,-5.0962,-5.0893,-5.0943,-5.0946,-5.093,-5.0961,-5.0943,-5.0978,-5.0912,-5.0917,-5.0961,-5.0943,-5.1023,-5.0931,-5.0976,-5.0978,-5.0975,-5.1185,-5.1225,-5.137,-5.1115,-5.1118,-5.112,0,-5.0955,-5.0973,-5.1077,-5.1068,-5.1082,-5.1127,-5.1147,-5.1178,-5.1181,-5.1166,-5.118,-5.1136,-5.1192,-5.1113,-5.119,-5.1129,-5.1146,-5.1141,-5.1145,-5.1145,-5.1055,-5.1188,-5.1416,-5.1437,-5.1151,-5.1148,-5.1146,0,-5.1107,-5.1157,-5.1226,-5.1232,-5.1223,-5.1257,-5.1255,-5.1254,-5.1272,-5.1291,-5.1301,-5.1327,-5.134,-5.1361,-5.1325,-5.1271,-5.1408,-5.1325,-5.1397,-5.1398,-5.1425,-5.1423,-5.1656,-5.1442,-5.1441,-5.1441,-5.144,0,-5.1275,-5.1341,-5.1294,-5.1336,-5.1408,-5.1363,-5.1436,-5.1427,-5.1428,-5.1467,-5.1411,-5.1449,-5.1402,-5.1436,-5.141,-5.1478,-5.1485,-5.1474,-5.1466,-5.1478,-5.1479,-5.1485,-5.1473,-5.1446,-5.1445,-5.1444,-5.1443,0,-5.1454,-5.1425,-5.1495,-5.1483,-5.1482,-5.1536,-5.1525,-5.1564,-5.1546,-5.1598,-5.1607,-5.1579,-5.1617,-5.1585,-5.1622,-5.1604,-5.1695,-5.1673,-5.1693,-5.1686,-5.1759,-5.1752,-5.2001,-5.2032,-5.18,-5.1803,-5.1804,0,-5.1561,-5.161,-5.1605,-5.1628,-5.163,-5.1667,-5.1686,-5.1645,-5.1667,-5.1677,-5.1716,-5.175,-5.1773,-5.1839,-5.1821,-5.185,-5.1827,-5.1914,-5.1831,-5.1842,-5.1827,-5.1823,-5.1828,-5.1929,-5.1931,-5.1934,-5.1935,0,-5.1755,-5.174,-5.1768,-5.1794,-5.1819,-5.1836,-5.185,-5.1872,-5.1831,-5.1859,-5.1898,-5.1918,-5.1957,-5.1991,-5.2015,-5.2014,-5.1968,-5.1963,-5.198,-5.1991,-5.2,-5.1994,-5.1736,-5.1956,-5.1954,-5.1952,-5.1951,-5.195,-5.19,-5.1941,-5.1944,-5.1979,-5.1986,-5.2001,-5.2037,-5.2025,-5.2057,-5.2086,-5.2061,-5.2108,-5.2114,-5.2142,-5.2147,-5.2184,-5.2148,-5.2174,-5.218,-5.2186,-5.2196,-5.1998,-5.2188,-5.2188,-5.2187,-5.2187,-5.2186,0,-5.2089,-5.2089,-5.2122,-5.2144,-5.2172,-5.213,-5.2144,-5.217,-5.2212,-5.2222,-5.2248,-5.2295,-5.2329,-5.2317,-5.2348,-5.238,-5.236,-5.2389,-5.2384,-5.2385,-5.2227,-5.2207,-5.2405,-5.2405,-5.2405,-5.2405,-5.2405,-5.2404,-5.219,-5.2258,-5.2244,-5.2315,-5.2315,-5.2361,-5.2372,-5.2387,-5.2394,-5.2449,-5.2477,-5.247,-5.2471,-5.2502,-5.2533,-5.2528,-5.2541,-5.2578,-5.2566,-5.2418,-5.2396,-5.2375,-5.2357,-5.2582,-5.2582,-5.2721,-5.2722,-5.2723]},{"header":{"parameterUnit":"m.s-1","parameterCategory":1,"la1":30.2991,"la2":30.254,"lo1":-89.0895,"lo2":-89.0444,"dy":0.0017,"dx":0.0017,"nx":28,"ny":28,"refTime":"2024-05-21T03:00:00:Z","depth":0,"parameterNumber":3,"parameterNumberName":"V-component_of_WINDS"},"data":[0,0,0,0,0,0,0,0,0,0,0,0,0,0,0,0,0,0,0,0,0,0,0,0,0,0,0,0,0,0,0,0,0,0,0,0,0,0,0,0,0,0,0,0,0,0,0,0,0,0,0,0,0,0,0,0,0,0,2.7458,2.7458,0,2.7461,2.7461,2.7461,2.7516,2.7517,2.7519,2.752,2.7517,2.7516,2.7514,0,0,0,0,0,0,0,0,0,0,0,0,0,2.7494,2.7493,2.7458,2.7458,2.7458,2.7461,2.7461,2.7461,2.7515,2.7517,2.7519,2.7521,2.7517,2.7516,2.7514,0,0,0,0,0,0,0,0,0,0,0,0,0,2.7486,2.7493,2.7458,2.7486,2.7488,2.7461,2.7461,2.7461,2.7515,2.7517,2.7519,2.7521,2.7518,2.7516,2.7514,2.7459,0,0,2.7508,2.7507,0,0,0,0,0,0,0,0,2.7486,2.7484,2.7481,2.7484,2.7486,2.749,2.7473,2.746,2.7515,2.7505,2.752,2.7522,2.7506,2.7505,2.7501,2.7459,2.7459,2.7507,2.7506,2.7505,2.7505,0,0,0,0,0,0,0,2.7487,2.7485,2.7459,2.7481,2.7484,2.7496,2.7498,2.7471,2.7493,2.7506,2.751,2.751,2.7508,2.7503,2.7501,2.7459,2.7507,2.7506,2.7504,2.7503,2.7373,2.7371,0,0,0,0,0,0,2.7484,2.7485,2.7459,2.7459,2.7492,2.7494,2.7495,2.7487,2.7494,2.7497,2.7508,2.7512,2.7505,2.7504,2.7501,2.7438,2.7505,2.7503,2.7502,2.7375,2.7373,2.737,0,0,0,0,0,0,2.7485,2.7481,2.7459,2.7473,2.7471,2.7491,2.7481,2.7486,2.7481,2.7496,2.7499,2.7499,2.7507,2.7504,2.747,2.7439,2.7502,2.75,2.7378,2.7375,2.7372,2.731,0,0,0,0,0,0,2.7486,2.7481,2.7461,2.7472,2.747,2.7428,2.7479,2.7484,2.7478,2.7484,2.7488,2.7491,2.7508,2.7473,2.7468,2.7437,2.7499,2.7381,2.7376,2.7373,2.7315,2.7305,2.7297,0,0,0,0,0,2.7487,2.7442,2.746,2.7456,2.7446,2.7426,2.7425,2.7448,2.7475,2.7455,2.7465,2.7491,2.7443,2.7469,2.7464,2.7432,2.7383,2.7378,2.7373,2.7319,2.7307,2.7297,0,0,0,0,0,0,2.7424,2.7444,2.7464,2.7422,2.7422,2.7436,2.741,2.7434,2.7425,2.743,2.7458,2.7458,2.7419,2.7422,2.745,2.738,2.7418,2.7412,2.7379,2.7368,2.7359,2.7358,2.7497,0,0,0,0,0,2.7406,2.739,2.7408,2.7369,2.7368,2.7389,2.7381,2.74,2.74,2.74,2.7407,2.7405,2.739,2.7379,2.7366,2.7317,2.7318,2.7293,2.7283,2.7276,2.7269,2.7244,2.7233,2.7354,2.7354,2.7354,0,0,2.7367,2.7376,2.7363,2.7357,2.7359,2.7341,2.7389,2.7367,2.7353,2.7396,2.7365,2.737,2.737,2.7328,2.731,2.7329,2.7237,2.727,2.7263,2.7261,2.7238,2.7227,2.7216,2.7351,2.7351,2.7352,0,0,2.7286,2.7292,2.7261,2.7263,2.7268,2.7283,2.7275,2.7286,2.7292,2.7261,2.7293,2.7277,2.725,2.7249,2.7245,2.7168,2.7192,2.7163,2.7114,2.709,2.708,2.7072,2.7044,2.7034,2.7157,2.7157,2.7157,0,2.7237,2.7212,2.7241,2.7218,2.7214,2.7256,2.7224,2.7224,2.7223,2.7218,2.7241,2.721,2.7213,2.7172,2.7153,2.7149,2.714,2.7161,2.708,2.7072,2.7064,2.7038,2.7027,2.7153,2.7154,2.7154,2.7155,0,2.7151,2.7133,2.7108,2.7109,2.7102,2.7074,2.7098,2.7088,2.7108,2.712,2.7089,2.7094,2.7083,2.7075,2.7093,2.7037,2.7049,2.7075,2.7114,2.7049,2.7024,2.7015,2.7148,2.715,2.7151,2.7152,0,0,2.7028,2.7048,2.7038,2.704,2.7049,2.7035,2.701,2.7002,2.6993,2.6991,2.697,2.6948,2.6974,2.6969,2.6987,2.6966,2.6905,2.6995,2.6995,2.6977,2.6844,2.6823,2.6811,2.6922,2.692,2.6918,2.6844,0,2.695,2.691,2.6937,2.6892,2.6876,2.6916,2.6895,2.6897,2.6909,2.6896,2.6908,2.6892,2.6927,2.6925,2.6905,2.6916,2.6878,2.6922,2.69,2.6899,2.6898,2.6798,2.6776,2.6705,2.6834,2.6833,2.6832,0,2.6854,2.6851,2.6805,2.682,2.6814,2.6794,2.679,2.6778,2.6782,2.6792,2.6788,2.6813,2.6788,2.6828,2.6795,2.6824,2.6817,2.6821,2.6819,2.6817,2.686,2.6792,2.6683,2.6672,2.6817,2.6818,2.6819,0,2.6768,2.6753,2.6724,2.6724,2.674,2.6725,2.6731,2.6738,2.6732,2.6728,2.6725,2.6717,2.6712,2.6706,2.6727,2.6755,2.6691,2.6732,2.6697,2.6696,2.668,2.668,2.6567,2.6678,2.6678,2.6678,2.6678,0,2.6678,2.6648,2.6686,2.6668,2.6636,2.6667,2.6634,2.6644,2.665,2.6634,2.6668,2.6652,2.6682,2.6668,2.6685,2.6655,2.6652,2.6659,2.6663,2.6655,2.6654,2.6649,2.6654,2.6675,2.6676,2.6676,2.6677,0,2.6576,2.6601,2.6572,2.6591,2.6595,2.657,2.6586,2.6569,2.6585,2.6564,2.6561,2.6583,2.657,2.6592,2.6579,2.6591,2.6549,2.6561,2.6548,2.6551,2.6514,2.6517,2.6393,2.6378,2.6499,2.6498,2.6497,0,2.6516,2.6494,2.6512,2.6505,2.651,2.6497,2.6493,2.6523,2.6517,2.6522,2.6504,2.6494,2.6487,2.6463,2.6478,2.6469,2.6481,2.6439,2.648,2.6473,2.648,2.648,2.6478,2.6429,2.6428,2.6427,2.6426,0,2.6407,2.6421,2.6414,2.6412,2.6406,2.6405,2.6406,2.6398,2.643,2.6421,2.6409,2.6404,2.6394,2.6383,2.6379,2.6383,2.6409,2.6413,2.6404,2.6395,2.6388,2.639,2.6523,2.6415,2.6416,2.6417,2.6417,2.6418,2.6324,2.6307,2.6318,2.6309,2.6314,2.6315,2.6301,2.6316,2.6307,2.6303,2.6321,2.6305,2.6311,2.6309,2.6311,2.6298,2.6316,2.6303,2.63,2.6296,2.629,2.6391,2.6297,2.6297,2.6298,2.6298,2.6298,0,2.6216,2.6226,2.6218,2.622,2.6213,2.6242,2.6246,2.6238,2.6224,2.6228,2.6222,2.6209,2.6199,2.6215,2.6207,2.6194,2.6206,2.6191,2.6191,2.6192,2.6274,2.6282,2.6182,2.6182,2.6182,2.6182,2.6182,2.6182,2.6159,2.6133,2.6148,2.6125,2.6134,2.612,2.612,2.6121,2.6125,2.6109,2.6103,2.6114,2.6123,2.6117,2.611,2.6114,2.6109,2.609,2.6099,2.6175,2.6186,2.6197,2.6204,2.6089,2.6089,2.6018,2.6017,2.6016]}]]